• In Uzbekistan
  • List of Countries
  • For 7 days
  • Water Temperature
  • Satellite Maps
  • Weather Map
  • Weather Widgets
  • user-avatar
    Login

    Hourly Weather Bad Saulgau

    Today, 19 February, Monday

    Time Temperature Precipitation Wind Pressure Humidity
    00:00 -6°C° 0 mm 1 mps 709 mmHg 95%
    01:00 -6°C° 0 mm 2 mps 708 mmHg 96%
    02:00 -7°C° 0 mm 2 mps 708 mmHg 96%
    03:00 -6°C° 0 mm 1 mps 708 mmHg 96%
    04:00 -7°C° 0 mm 1 mps 707 mmHg 96%
    05:00 -7°C° 0 mm 1 mps 707 mmHg 96%
    06:00 -7°C° 0 mm 1 mps 707 mmHg 96%
    07:00 -7°C° 0 mm 1 mps 707 mmHg 96%
    08:00 -4°C° 0 mm 1 mps 707 mmHg 94%
    09:00 -3°C° 0 mm 1 mps 707 mmHg 92%
    10:00 -3°C° 0 mm 0 mps 706 mmHg 90%
    11:00 -2°C° 0 mm 0 mps 706 mmHg 89%
    12:00 -1°C° 0 mm 0 mps 706 mmHg 88%
    13:00 0°C° 0 mm 0 mps 706 mmHg 87%
    14:00 0°C° 0 mm 0 mps 705 mmHg 87%
    15:00 0°C° 0 mm 0 mps 705 mmHg 86%
    16:00 0°C° 0 mm 0 mps 705 mmHg 86%
    17:00 0°C° 0 mm 0 mps 705 mmHg 88%
    18:00 -1°C° 0 mm 0 mps 705 mmHg 90%
    19:00 -1°C° 0 mm 1 mps 705 mmHg 92%
    20:00 -1°C° 0 mm 1 mps 705 mmHg 93%
    21:00 -2°C° 0 mm 1 mps 705 mmHg 93%
    22:00 -2°C° 0 mm 1 mps 705 mmHg 94%
    23:00 -2°C° 0 mm 1 mps 704 mmHg 94%

    Tomorrow, 20 February, Tuesday

    Time Temperature Precipitation Wind Pressure Humidity
    00:00 -3°C° 0 mm 1 mps 704 mmHg 94%
    01:00 -3°C° 0 mm 1 mps 704 mmHg 94%
    02:00 -3°C° 0 mm 1 mps 704 mmHg 94%
    03:00 -3°C° 0 mm 1 mps 704 mmHg 93%
    04:00 -4°C° 0 mm 0 mps 704 mmHg 93%
    05:00 -4°C° 0 mm 0 mps 704 mmHg 93%
    06:00 -4°C° 0 mm 0 mps 704 mmHg 93%
    07:00 -4°C° 0 mm 0 mps 704 mmHg 93%
    08:00 -3°C° 0 mm 0 mps 704 mmHg 91%
    09:00 -1°C° 0 mm 1 mps 704 mmHg 88%
    10:00 0°C° 0 mm 1 mps 704 mmHg 86%
    11:00 0°C° 0 mm 1 mps 704 mmHg 84%
    12:00 +1°C° 0 mm 1 mps 704 mmHg 82%
    13:00 +1°C° 0 mm 1 mps 703 mmHg 80%
    14:00 -1°C° 0 mm 2 mps 703 mmHg 80%
    15:00 -1°C° 0 mm 2 mps 703 mmHg 79%
    16:00 -1°C° 0 mm 2 mps 703 mmHg 79%
    17:00 -2°C° 0 mm 2 mps 703 mmHg 82%
    18:00 -3°C° 0 mm 2 mps 704 mmHg 86%
    19:00 -4°C° 0 mm 2 mps 704 mmHg 90%
    20:00 -4°C° 0 mm 2 mps 704 mmHg 91%
    21:00 -5°C° 0 mm 2 mps 704 mmHg 92%
    22:00 -3°C° 0 mm 1 mps 705 mmHg 93%
    23:00 -5°C° 0 mm 2 mps 705 mmHg 94%

    Day after tomorrow, 21 February, Wednesday

    Time Temperature Precipitation Wind Pressure Humidity
    00:00 -6°C° 0 mm 2 mps 705 mmHg 94%
    01:00 -6°C° 0 mm 2 mps 705 mmHg 95%
    02:00 -6°C° 0 mm 2 mps 705 mmHg 95%
    03:00 -6°C° 0 mm 2 mps 705 mmHg 95%
    04:00 -6°C° 0 mm 2 mps 705 mmHg 96%
    05:00 -6°C° 0 mm 2 mps 705 mmHg 95%
    06:00 -6°C° 0 mm 2 mps 706 mmHg 95%
    07:00 -6°C° 0 mm 2 mps 706 mmHg 95%
    08:00 -6°C° 0 mm 3 mps 706 mmHg 93%
    09:00 -5°C° 0 mm 3 mps 706 mmHg 91%
    10:00 -4°C° 0 mm 3 mps 706 mmHg 89%
    11:00 -3°C° 0 mm 4 mps 706 mmHg 86%
    12:00 -3°C° 0 mm 4 mps 705 mmHg 84%
    13:00 -2°C° 0 mm 4 mps 705 mmHg 81%
    14:00 -2°C° 0 mm 4 mps 705 mmHg 80%
    15:00 -2°C° 0 mm 4 mps 705 mmHg 79%
    16:00 -1°C° 0 mm 4 mps 704 mmHg 78%
    17:00 -3°C° 0 mm 4 mps 704 mmHg 81%
    18:00 -4°C° 0 mm 3 mps 705 mmHg 84%
    19:00 -5°C° 0 mm 3 mps 705 mmHg 87%
    20:00 -5°C° 0 mm 3 mps 705 mmHg 87%
    21:00 -5°C° 0 mm 3 mps 705 mmHg 88%
    22:00 -5°C° 0 mm 3 mps 704 mmHg 88%
    23:00 -6°C° 0 mm 3 mps 704 mmHg 88%

    22 February, Thursday

    Time Temperature Precipitation Wind Pressure Humidity
    00:00 -7°C° 0 mm 4 mps 704 mmHg 89%
    01:00 -7°C° 0 mm 4 mps 704 mmHg 89%
    02:00 -7°C° 0.1 mm 4 mps 703 mmHg 88%
    03:00 -7°C° 0.1 mm 5 mps 703 mmHg 88%
    04:00 -7°C° 0.1 mm 5 mps 703 mmHg 87%
    05:00 -7°C° 0.1 mm 5 mps 702 mmHg 86%
    06:00 -8°C° 0.1 mm 6 mps 702 mmHg 85%
    07:00 -8°C° 0.1 mm 6 mps 702 mmHg 84%
    08:00 -8°C° 0.1 mm 6 mps 702 mmHg 83%
    09:00 -6°C° 0.1 mm 6 mps 702 mmHg 82%
    10:00 -7°C° 0.1 mm 7 mps 702 mmHg 81%
    11:00 -6°C° 0 mm 7 mps 701 mmHg 80%
    12:00 -6°C° 0 mm 7 mps 701 mmHg 79%
    13:00 -4°C° 0 mm 7 mps 701 mmHg 78%
    14:00 -4°C° 0.1 mm 7 mps 701 mmHg 78%
    15:00 -4°C° 0.1 mm 7 mps 701 mmHg 79%
    16:00 -4°C° 0.1 mm 7 mps 700 mmHg 80%
    17:00 -5°C° 0.1 mm 6 mps 701 mmHg 81%
    18:00 -5°C° 0.1 mm 6 mps 701 mmHg 83%
    19:00 -5°C° 0.1 mm 6 mps 701 mmHg 85%
    20:00 -5°C° 0.1 mm 6 mps 701 mmHg 85%
    21:00 -5°C° 0.1 mm 6 mps 701 mmHg 86%
    22:00 -6°C° 0.1 mm 6 mps 701 mmHg 86%
    23:00 -6°C° 0 mm 6 mps 701 mmHg 86%

    23 February, Friday

    Time Temperature Precipitation Wind Pressure Humidity
    00:00 -6°C° 0 mm 6 mps 701 mmHg 87%
    01:00 -6°C° 0 mm 6 mps 701 mmHg 87%
    02:00 -6°C° 0 mm 5 mps 701 mmHg 87%
    03:00 -6°C° 0 mm 5 mps 701 mmHg 87%
    04:00 -6°C° 0 mm 5 mps 701 mmHg 88%
    05:00 -6°C° 0 mm 5 mps 701 mmHg 88%
    06:00 -6°C° 0 mm 5 mps 701 mmHg 88%
    07:00 -6°C° 0 mm 5 mps 701 mmHg 88%
    08:00 -6°C° 0 mm 5 mps 701 mmHg 86%
    09:00 -5°C° 0 mm 6 mps 702 mmHg 85%
    10:00 -5°C° 0 mm 6 mps 702 mmHg 83%
    11:00 -4°C° 0 mm 6 mps 702 mmHg 82%
    12:00 -4°C° 0 mm 6 mps 702 mmHg 80%
    13:00 -3°C° 0 mm 6 mps 702 mmHg 79%
    14:00 -3°C° 0 mm 6 mps 702 mmHg 79%
    15:00 -3°C° 0 mm 7 mps 702 mmHg 79%
    16:00 -3°C° 0 mm 7 mps 702 mmHg 79%
    17:00 -4°C° 0 mm 7 mps 702 mmHg 80%
    18:00 -4°C° 0 mm 6 mps 703 mmHg 81%
    19:00 -5°C° 0 mm 6 mps 703 mmHg 82%
    20:00 -6°C° 0 mm 7 mps 703 mmHg 82%
    21:00 -6°C° 0 mm 7 mps 704 mmHg 82%
    22:00 -7°C° 0 mm 7 mps 704 mmHg 82%
    23:00 -7°C° 0 mm 7 mps 704 mmHg 81%

    24 February, Saturday

    Time Temperature Precipitation Wind Pressure Humidity
    00:00 -8°C° 0 mm 6 mps 705 mmHg 81%
    01:00 -8°C° 0 mm 6 mps 705 mmHg 81%
    02:00 -9°C° 0 mm 6 mps 705 mmHg 80%
    03:00 -10°C° 0 mm 6 mps 705 mmHg 79%
    04:00 -10°C° 0 mm 6 mps 705 mmHg 77%
    05:00 -11°C° 0 mm 6 mps 706 mmHg 76%
    06:00 -11°C° 0 mm 6 mps 706 mmHg 75%
    07:00 -12°C° 0 mm 6 mps 706 mmHg 73%
    08:00 -11°C° 0 mm 6 mps 707 mmHg 71%
    09:00 -10°C° 0 mm 6 mps 707 mmHg 69%
    10:00 -10°C° 0 mm 6 mps 707 mmHg 67%
    11:00 -9°C° 0 mm 7 mps 707 mmHg 64%
    12:00 -8°C° 0 mm 7 mps 707 mmHg 62%
    13:00 -7°C° 0 mm 7 mps 707 mmHg 59%
    14:00 -7°C° 0 mm 7 mps 707 mmHg 59%
    15:00 -7°C° 0 mm 7 mps 707 mmHg 58%
    16:00 -7°C° 0 mm 7 mps 707 mmHg 58%
    17:00 -8°C° 0 mm 7 mps 707 mmHg 59%
    18:00 -9°C° 0 mm 6 mps 707 mmHg 61%
    19:00 -10°C° 0 mm 6 mps 708 mmHg 63%
    20:00 -10°C° 0 mm 6 mps 708 mmHg 64%
    21:00 -11°C° 0 mm 6 mps 708 mmHg 65%
    22:00 -11°C° 0 mm 6 mps 708 mmHg 66%
    23:00 -11°C° 0 mm 6 mps 708 mmHg 68%
    Show more